{"data":{"norad_id":56879,"epoch":"2026-05-24T21:54:16.161120Z","epoch_age_seconds":75806,"freshness":"FRESH","line1":"1 56879U 23083D   26144.91268705 -.00000277  00000+0 -54475-6 0  9994","line2":"2 56879  43.0056  15.0752 0001482 269.0024  91.0657 15.27571242163287","mean_motion":15.27571242,"eccentricity":0.0001482,"inclination_deg":43.0056,"raan_deg":15.0752,"arg_perigee_deg":269.0024,"mean_anomaly_deg":91.0657,"bstar":-5.4475e-7,"rev_number":16328,"period_min":94.267289171709,"perigee_km":482.05848910168,"apogee_km":484.09215243356,"semimajor_km":6861.2123207676,"source":"CELESTRAK","updated_at":"2026-05-25T13:38:18.167026Z"}}